Weather History for McCall, ID

Change the Weather History Date:

Saturday, January 4, 2014

  Actual Average Record
Temperature  
Mean Temperature 13 °F 19 °F  
Max Temperature 26 °F 28 °F 51 °F (1939)
Min Temperature -1 °F 10 °F -25 °F (1949)
Degree Days  
Heating Degree Days 52 46  
Month to date heating degree days 183 184  
Since 1 July heating degree days 3729 4258  
Cooling Degree Days 0 0  
Month to date cooling degree days 0 0  
Year to date cooling degree days 0 0  
Moisture  
Dew Point 2 °F    
Average Humidity 63    
Maximum Humidity 87    
Minimum Humidity 38    
Precipitation  
Precipitation 0.00 in 0.05 in 0.95 in (2000)
Month to date precipitation T 0.22  
Year to date precipitation T 0.22  
Sea Level Pressure  
Sea Level Pressure 30.36 in    
Wind  
Wind Speed 3 mph (North)    
Max Wind Speed 15 mph    
Max Gust Speed 21 mph    
Visibility 10 miles    
Events      
T = Trace of Precipitation, MM = Missing Value Source: NWS Daily Summary

Daily Weather History Graph

Daily Weather History Graph

Search for Another Location

Airport:

Trip Planner

Search our weather history database for the weather conditions in past years. The results will help you decide how hot, cold, wet, or windy it might be!

Date:

Astronomy

Jan. 04, 2014 Rise Set
Actual Time 8:22 AM MST 5:16 PM MST
Civil Twilight 7:48 AM MST 5:50 PM MST
Nautical Twilight 7:11 AM MST 6:27 PM MST
Astronomical Twilight 6:36 AM MST 7:02 PM MST
Moon 10:19 AM MST (1/4) 9:54 PM MST (1/4)
Length of Visible Light 10h 01m
Length of Day
8h 54m
Waxing Crescent, 16% of the Moon is Illuminated
Jan 4
Waxing Crescent
Jan 7
First Quarter
Jan 15
Full
Jan 23
Last Quarter
Jan 30
New

Hourly Weather History & Observations

Time (MST) Temp. Windchill Dew Point Humidity Pressure Visibility Wind Dir Wind Speed Gust Speed Precip Events Conditions
12:51 AM 8.1 °F 1.4 °F 3.0 °F 80% 30.17 in 10.0 mi North 3.5 mph - N/A   Clear
1:51 AM 6.1 °F - 1.9 °F 83% 30.17 in 10.0 mi Calm Calm - N/A   Clear
2:51 AM 6.1 °F - 1.0 °F 80% 30.20 in 10.0 mi Calm Calm - N/A   Clear
3:51 AM 3.9 °F - -0.0 °F 84% 30.23 in 10.0 mi Calm Calm - N/A   Clear
4:51 AM 1.0 °F - -2.9 °F 83% 30.26 in 10.0 mi Calm Calm - N/A   Clear
5:51 AM 1.9 °F - -2.9 °F 80% 30.28 in 10.0 mi Calm Calm - N/A   Mostly Cloudy
6:51 AM 3.9 °F - -2.0 °F 76% 30.29 in 10.0 mi Calm Calm - N/A   Mostly Cloudy
7:51 AM 1.9 °F - -2.0 °F 83% 30.31 in 10.0 mi Calm Calm - N/A   Mostly Cloudy
8:51 AM 1.9 °F - -2.9 °F 80% 30.35 in 10.0 mi Calm Calm - N/A   Scattered Clouds
9:51 AM 5.0 °F - 1.0 °F 84% 30.38 in 10.0 mi Calm Calm - N/A   Clear
10:51 AM 10.0 °F - 6.1 °F 84% 30.39 in 10.0 mi Calm Calm - N/A   Partly Cloudy
11:51 AM 25.0 °F 18.1 °F 10.0 °F 53% 30.35 in 10.0 mi NNW 5.8 mph - N/A   Mostly Cloudy
12:51 PM 25.0 °F 15.5 °F 6.1 °F 45% 30.35 in 10.0 mi North 9.2 mph - N/A   Partly Cloudy
1:51 PM 25.0 °F 14.8 °F 5.0 °F 43% 30.37 in 10.0 mi WNW 10.4 mph 20.7 mph N/A   Clear
2:51 PM 26.1 °F 16.8 °F 5.0 °F 41% 30.38 in 10.0 mi NNW 9.2 mph - N/A   Partly Cloudy
3:51 PM 25.0 °F 16.3 °F 5.0 °F 43% 30.40 in 10.0 mi NNW 8.1 mph - N/A   Mostly Cloudy
4:51 PM 21.9 °F 14.5 °F 5.0 °F 48% 30.43 in 10.0 mi North 5.8 mph - N/A   Partly Cloudy
5:51 PM 19.0 °F 12.3 °F 5.0 °F 54% 30.43 in 10.0 mi NNE 4.6 mph - N/A   Clear
6:51 PM 14.0 °F 6.5 °F 5.0 °F 67% 30.46 in 10.0 mi NNE 4.6 mph - N/A   Clear
7:51 PM 9.0 °F - 3.0 °F 77% 30.49 in 10.0 mi Calm Calm - N/A   Clear
8:51 PM 10.0 °F 0.4 °F 3.0 °F 73% 30.50 in 10.0 mi NNE 5.8 mph - N/A   Clear
9:51 PM 6.1 °F - 1.0 °F 80% 30.51 in 10.0 mi Calm Calm - N/A   Clear
10:51 PM 1.9 °F -5.6 °F -2.9 °F 80% 30.52 in 10.0 mi ENE 3.5 mph - N/A   Clear
11:51 PM 1.9 °F - -2.9 °F 80% 30.46 in 10.0 mi Calm Calm - N/A   Clear